Time,TemperatureF,DewpointF,PressureIn,WindDirection,WindDirectionDegrees,WindSpeedMPH,WindSpeedGustMPH,Humidity,HourlyPrecipIn,Conditions,Clouds,dailyrainin,SoftwareType,DateUTC
2013-01-20 00:02:00,46.0,41.0,30.20,SSE,154,0.0,0.0,81,0.00,,,0.00,,2013-01-20 06:02:00,
2013-01-20 00:12:00,46.0,41.0,30.20,SSE,154,0.0,0.0,81,0.00,,,0.00,,2013-01-20 06:12:00,
2013-01-20 00:22:00,46.0,41.0,30.20,SSE,154,0.0,0.0,81,0.00,,,0.00,,2013-01-20 06:22:00,
2013-01-20 00:33:00,45.0,40.0,30.20,SSE,154,0.0,0.0,82,0.00,,,0.00,,2013-01-20 06:33:00,
2013-01-20 00:42:00,45.0,40.0,30.20,SSE,154,0.0,0.0,82,0.00,,,0.00,,2013-01-20 06:42:00,
2013-01-20 00:52:00,45.0,40.0,30.20,SSE,154,0.0,0.0,83,0.00,,,0.00,,2013-01-20 06:52:00,
2013-01-20 01:02:00,44.0,39.0,30.20,SSE,154,0.0,0.0,83,0.00,,,0.00,,2013-01-20 07:02:00,
2013-01-20 01:12:00,44.0,39.0,30.20,SSE,154,0.0,0.0,83,0.00,,,0.00,,2013-01-20 07:12:00,
2013-01-20 01:22:00,44.0,39.0,30.20,SSE,154,0.0,0.0,83,0.00,,,0.00,,2013-01-20 07:22:00,
2013-01-20 01:32:00,43.0,38.0,30.20,SSE,154,0.0,0.0,84,0.00,,,0.00,,2013-01-20 07:32:00,
2013-01-20 01:42:00,43.0,38.0,30.20,SSE,154,0.0,0.0,84,0.00,,,0.00,,2013-01-20 07:42:00,
2013-01-20 01:52:00,43.0,39.0,30.19,SSE,154,0.0,0.0,85,0.00,,,0.00,,2013-01-20 07:52:00,
2013-01-20 02:02:00,43.0,39.0,30.19,SSE,154,0.0,0.0,86,0.00,,,0.00,,2013-01-20 08:02:00,
2013-01-20 02:12:00,43.0,39.0,30.19,SSE,154,0.0,0.0,86,0.00,,,0.00,,2013-01-20 08:12:00,
2013-01-20 02:22:00,43.0,39.0,30.19,SSE,153,0.0,1.0,86,0.00,,,0.00,,2013-01-20 08:22:00,
2013-01-20 02:32:00,42.0,38.0,30.19,SSE,154,0.0,0.0,86,0.00,,,0.00,,2013-01-20 08:32:00,
2013-01-20 02:42:00,42.0,38.0,30.19,SSE,154,0.0,0.0,86,0.00,,,0.00,,2013-01-20 08:42:00,
2013-01-20 02:52:00,41.0,37.0,30.20,SSE,154,0.0,0.0,86,0.00,,,0.00,,2013-01-20 08:52:00,
2013-01-20 03:02:00,41.0,37.0,30.19,SSE,154,0.0,0.0,87,0.00,,,0.00,,2013-01-20 09:02:00,
2013-01-20 03:12:00,41.0,37.0,30.19,SSE,154,0.0,0.0,87,0.00,,,0.00,,2013-01-20 09:12:00,
2013-01-20 03:22:00,40.0,36.0,30.19,SSE,154,0.0,1.0,87,0.00,,,0.00,,2013-01-20 09:22:00,
2013-01-20 03:33:00,40.0,37.0,30.19,SSE,154,0.0,0.0,88,0.00,,,0.00,,2013-01-20 09:33:00,
2013-01-20 03:42:00,40.0,37.0,30.19,SSE,154,0.0,0.0,88,0.00,,,0.00,,2013-01-20 09:42:00,
2013-01-20 03:53:00,40.0,37.0,30.18,SSE,154,0.0,0.0,89,0.00,,,0.00,,2013-01-20 09:53:00,
2013-01-20 04:02:00,41.0,38.0,30.18,SSE,154,0.0,0.0,89,0.00,,,0.00,,2013-01-20 10:02:00,
2013-01-20 04:12:00,41.0,38.0,30.18,SSE,154,0.0,0.0,89,0.00,,,0.00,,2013-01-20 10:12:00,
2013-01-20 04:22:00,41.0,38.0,30.18,SSE,154,0.0,0.0,90,0.00,,,0.00,,2013-01-20 10:22:00,
2013-01-20 04:32:00,41.0,38.0,30.17,SSE,154,0.0,1.0,89,0.00,,,0.00,,2013-01-20 10:32:00,
2013-01-20 04:42:00,41.0,38.0,30.17,SSE,154,0.0,1.0,89,0.00,,,0.00,,2013-01-20 10:42:00,
2013-01-20 04:52:00,40.0,37.0,30.17,SSE,154,0.0,1.0,89,0.00,,,0.00,,2013-01-20 10:52:00,
2013-01-20 05:02:00,40.0,37.0,30.17,SSE,154,0.0,1.0,89,0.00,,,0.00,,2013-01-20 11:02:00,
2013-01-20 05:12:00,40.0,37.0,30.17,SSE,154,0.0,1.0,89,0.00,,,0.00,,2013-01-20 11:12:00,
2013-01-20 05:22:00,39.0,36.0,30.17,SSE,154,0.0,1.0,89,0.00,,,0.00,,2013-01-20 11:22:00,
2013-01-20 05:32:00,39.0,36.0,30.17,SSE,154,0.0,0.0,90,0.00,,,0.00,,2013-01-20 11:32:00,
2013-01-20 05:42:00,39.0,36.0,30.17,SSE,154,0.0,0.0,90,0.00,,,0.00,,2013-01-20 11:42:00,
2013-01-20 05:53:00,39.0,36.0,30.17,SSE,154,0.0,1.0,90,0.00,,,0.00,,2013-01-20 11:53:00,
2013-01-20 06:03:00,39.0,37.0,30.17,SSE,154,0.0,1.0,91,0.00,,,0.00,,2013-01-20 12:03:00,
2013-01-20 06:12:00,39.0,37.0,30.17,SSE,154,0.0,1.0,91,0.00,,,0.00,,2013-01-20 12:12:00,
2013-01-20 06:23:00,40.0,38.0,30.17,SSE,154,0.0,1.0,91,0.00,,,0.00,,2013-01-20 12:23:00,
2013-01-20 06:33:00,40.0,38.0,30.17,SSE,154,0.0,0.0,91,0.00,,,0.00,,2013-01-20 12:33:00,
2013-01-20 06:43:00,40.0,38.0,30.17,SSE,154,0.0,0.0,91,0.00,,,0.00,,2013-01-20 12:43:00,
2013-01-20 06:53:00,40.0,38.0,30.17,SSE,154,0.0,1.0,91,0.00,,,0.00,,2013-01-20 12:53:00,
2013-01-20 07:02:00,39.0,36.0,30.17,SSE,154,0.0,0.0,90,0.00,,,0.00,,2013-01-20 13:02:00,
2013-01-20 07:12:00,39.0,36.0,30.17,SSE,154,0.0,0.0,90,0.00,,,0.00,,2013-01-20 13:12:00,
2013-01-20 07:23:00,39.0,37.0,30.18,SSE,154,0.0,1.0,91,0.00,,,0.00,,2013-01-20 13:23:00,
2013-01-20 07:33:00,38.0,36.0,30.18,SSE,154,0.0,1.0,91,0.00,,,0.00,,2013-01-20 13:33:00,
2013-01-20 07:42:00,38.0,36.0,30.18,SSE,154,0.0,1.0,91,0.00,,,0.00,,2013-01-20 13:42:00,
2013-01-20 07:53:00,38.0,35.0,30.18,SSE,154,0.0,0.0,90,0.00,,,0.00,,2013-01-20 13:53:00,
2013-01-20 08:02:00,38.0,36.0,30.18,SSE,154,0.0,1.0,91,0.00,,,0.00,,2013-01-20 14:02:00,
2013-01-20 08:12:00,38.0,36.0,30.18,SSE,154,0.0,1.0,91,0.00,,,0.00,,2013-01-20 14:12:00,
2013-01-20 08:23:00,39.0,37.0,30.18,SSE,154,0.0,2.0,93,0.00,,,0.00,,2013-01-20 14:23:00,
2013-01-20 08:32:00,40.0,38.0,30.18,SSE,154,0.0,1.0,93,0.00,,,0.00,,2013-01-20 14:32:00,
2013-01-20 08:42:00,40.0,38.0,30.18,SSE,154,0.0,1.0,93,0.00,,,0.00,,2013-01-20 14:42:00,
2013-01-20 08:53:00,42.0,40.0,30.18,SSE,154,0.0,0.0,93,0.00,,,0.00,,2013-01-20 14:53:00,
2013-01-20 09:03:00,44.0,42.0,30.18,SSE,154,1.0,2.0,93,0.00,,,0.00,,2013-01-20 15:03:00,
2013-01-20 09:12:00,44.0,42.0,30.18,SSE,154,1.0,2.0,93,0.00,,,0.00,,2013-01-20 15:12:00,
2013-01-20 09:23:00,46.0,44.0,30.18,SSE,154,1.0,4.0,92,0.00,,,0.00,,2013-01-20 15:23:00,
2013-01-20 09:33:00,48.0,45.0,30.19,SSE,153,1.0,3.0,91,0.00,,,0.00,,2013-01-20 15:33:00,
2013-01-20 09:42:00,48.0,45.0,30.19,SSE,153,1.0,3.0,91,0.00,,,0.00,,2013-01-20 15:42:00,
2013-01-20 09:53:00,50.0,47.0,30.20,SSE,153,1.0,4.0,90,0.00,,,0.00,,2013-01-20 15:53:00,
2013-01-20 10:02:00,52.0,49.0,30.20,SSE,153,1.0,3.0,88,0.00,,,0.00,,2013-01-20 16:02:00,
2013-01-20 10:12:00,52.0,49.0,30.20,SSE,153,1.0,3.0,88,0.00,,,0.00,,2013-01-20 16:12:00,
2013-01-20 10:23:00,53.0,49.0,30.20,SSE,153,1.0,3.0,85,0.00,,,0.00,,2013-01-20 16:23:00,
2013-01-20 10:33:00,55.0,50.0,30.21,SSE,153,1.0,3.0,83,0.00,,,0.00,,2013-01-20 16:33:00,
2013-01-20 10:42:00,55.0,50.0,30.21,SSE,153,1.0,3.0,83,0.00,,,0.00,,2013-01-20 16:42:00,
2013-01-20 10:53:00,57.0,50.0,30.20,SE,132,1.0,4.0,78,0.00,,,0.00,,2013-01-20 16:53:00,
2013-01-20 11:03:00,58.0,50.0,30.20,SE,132,1.0,3.0,76,0.00,,,0.00,,2013-01-20 17:03:00,
2013-01-20 11:12:00,58.0,50.0,30.20,SE,132,1.0,3.0,76,0.00,,,0.00,,2013-01-20 17:12:00,
2013-01-20 11:22:00,60.0,51.0,30.19,SE,126,2.0,4.0,71,0.00,,,0.00,,2013-01-20 17:22:00,
2013-01-20 11:33:00,62.0,51.0,30.19,ESE,111,3.0,7.0,68,0.00,,,0.00,,2013-01-20 17:33:00,
2013-01-20 11:42:00,62.0,51.0,30.19,ESE,111,3.0,7.0,68,0.00,,,0.00,,2013-01-20 17:42:00,
2013-01-20 11:53:00,63.0,51.0,30.19,ESE,122,2.0,6.0,66,0.00,,,0.00,,2013-01-20 17:53:00,
2013-01-20 12:03:00,63.0,51.0,30.18,SSE,153,4.0,7.0,64,0.00,,,0.00,,2013-01-20 18:03:00,
2013-01-20 12:12:00,64.0,51.0,30.16,SSE,157,4.0,7.0,62,0.00,,,0.00,,2013-01-20 18:12:00,
2013-01-20 12:23:00,64.0,51.0,30.16,SSE,157,4.0,7.0,62,0.00,,,0.00,,2013-01-20 18:23:00,
2013-01-20 12:33:00,66.0,50.0,30.15,SE,135,3.0,10.0,57,0.00,,,0.00,,2013-01-20 18:33:00,
2013-01-20 12:43:00,66.0,50.0,30.15,SE,135,3.0,10.0,57,0.00,,,0.00,,2013-01-20 18:43:00,
2013-01-20 12:53:00,66.0,50.0,30.14,ESE,106,3.0,8.0,57,0.00,,,0.00,,2013-01-20 18:53:00,
2013-01-20 13:02:00,67.0,50.0,30.13,SSE,147,4.0,9.0,55,0.00,,,0.00,,2013-01-20 19:02:00,
2013-01-20 13:12:00,67.0,50.0,30.13,SSE,147,4.0,9.0,55,0.00,,,0.00,,2013-01-20 19:12:00,
2013-01-20 13:22:00,67.0,50.0,30.11,SSE,165,4.0,9.0,54,0.00,,,0.00,,2013-01-20 19:22:00,
2013-01-20 13:33:00,67.0,48.0,30.11,SE,129,5.0,11.0,51,0.00,,,0.00,,2013-01-20 19:33:00,
2013-01-20 13:42:00,67.0,48.0,30.11,SE,129,5.0,11.0,51,0.00,,,0.00,,2013-01-20 19:42:00,
2013-01-20 13:53:00,68.0,48.0,30.11,South,188,8.0,14.0,49,0.00,,,0.00,,2013-01-20 19:53:00,
2013-01-20 14:03:00,67.0,47.0,30.10,SSE,158,4.0,11.0,49,0.00,,,0.00,,2013-01-20 20:03:00,
2013-01-20 14:12:00,67.0,47.0,30.10,SSE,158,4.0,11.0,49,0.00,,,0.00,,2013-01-20 20:12:00,
2013-01-20 14:22:00,68.0,48.0,30.09,South,176,4.0,10.0,49,0.00,,,0.00,,2013-01-20 20:22:00,
2013-01-20 14:33:00,68.0,48.0,30.09,SSE,157,5.0,13.0,48,0.00,,,0.00,,2013-01-20 20:33:00,
2013-01-20 14:42:00,68.0,48.0,30.09,SSE,157,5.0,13.0,48,0.00,,,0.00,,2013-01-20 20:42:00,
2013-01-20 14:53:00,69.0,48.0,30.08,South,171,3.0,11.0,47,0.00,,,0.00,,2013-01-20 20:53:00,
2013-01-20 15:03:00,69.0,47.0,30.08,SSW,194,3.0,8.0,46,0.00,,,0.00,,2013-01-20 21:03:00,
2013-01-20 15:13:00,69.0,47.0,30.08,SSW,194,3.0,8.0,46,0.00,,,0.00,,2013-01-20 21:13:00,
2013-01-20 15:23:00,69.0,47.0,30.07,South,170,4.0,8.0,46,0.00,,,0.00,,2013-01-20 21:23:00,
2013-01-20 15:33:00,69.0,46.0,30.07,SSE,162,4.0,9.0,44,0.00,,,0.00,,2013-01-20 21:33:00,
2013-01-20 15:43:00,69.0,46.0,30.07,SSE,162,4.0,9.0,44,0.00,,,0.00,,2013-01-20 21:43:00,
2013-01-20 15:53:00,69.0,47.0,30.06,SSE,167,5.0,10.0,45,0.00,,,0.00,,2013-01-20 21:53:00,
2013-01-20 16:03:00,69.0,47.0,30.06,SSE,154,4.0,9.0,46,0.00,,,0.00,,2013-01-20 22:03:00,
2013-01-20 16:12:00,69.0,47.0,30.06,SSE,154,4.0,9.0,46,0.00,,,0.00,,2013-01-20 22:12:00,
2013-01-20 16:22:00,69.0,46.0,30.06,SSW,195,4.0,11.0,44,0.00,,,0.00,,2013-01-20 22:22:00,
2013-01-20 16:33:00,70.0,47.0,30.06,SSE,152,3.0,9.0,44,0.00,,,0.00,,2013-01-20 22:33:00,
2013-01-20 16:43:00,70.0,47.0,30.06,SSE,152,3.0,9.0,44,0.00,,,0.00,,2013-01-20 22:43:00,
2013-01-20 16:53:00,69.0,47.0,30.05,South,182,5.0,10.0,46,0.00,,,0.00,,2013-01-20 22:53:00,
2013-01-20 17:03:00,69.0,48.0,30.05,South,185,6.0,9.0,47,0.00,,,0.00,,2013-01-20 23:03:00,
2013-01-20 17:13:00,69.0,48.0,30.05,South,185,6.0,9.0,47,0.00,,,0.00,,2013-01-20 23:13:00,
2013-01-20 17:23:00,68.0,48.0,30.06,SSE,162,2.0,6.0,49,0.00,,,0.00,,2013-01-20 23:23:00,
2013-01-20 17:33:00,68.0,48.0,30.06,SSE,159,2.0,7.0,49,0.00,,,0.00,,2013-01-20 23:33:00,
2013-01-20 17:43:00,68.0,48.0,30.06,SSE,159,2.0,7.0,49,0.00,,,0.00,,2013-01-20 23:43:00,
2013-01-20 17:53:00,67.0,48.0,30.06,South,185,1.0,5.0,50,0.00,,,0.00,,2013-01-20 23:53:00,
2013-01-20 18:03:00,66.0,47.0,30.06,South,185,0.0,2.0,51,0.00,,,0.00,,2013-01-21 00:03:00,
2013-01-20 18:13:00,66.0,47.0,30.06,South,185,0.0,2.0,51,0.00,,,0.00,,2013-01-21 00:13:00,
2013-01-20 18:22:00,65.0,47.0,30.06,South,185,0.0,1.0,53,0.00,,,0.00,,2013-01-21 00:22:00,
2013-01-20 18:33:00,64.0,48.0,30.07,South,185,0.0,2.0,56,0.00,,,0.00,,2013-01-21 00:33:00,
2013-01-20 18:43:00,64.0,48.0,30.07,South,185,0.0,2.0,56,0.00,,,0.00,,2013-01-21 00:43:00,
2013-01-20 18:53:00,62.0,47.0,30.07,South,185,0.0,1.0,59,0.00,,,0.00,,2013-01-21 00:53:00,
2013-01-20 19:03:00,61.0,47.0,30.07,South,185,0.0,1.0,61,0.00,,,0.00,,2013-01-21 01:03:00,
2013-01-20 19:13:00,61.0,47.0,30.07,South,185,0.0,1.0,61,0.00,,,0.00,,2013-01-21 01:13:00,
2013-01-20 19:23:00,59.0,47.0,30.07,South,185,0.0,1.0,64,0.00,,,0.00,,2013-01-21 01:23:00,
2013-01-20 19:33:00,58.0,47.0,30.07,South,185,0.0,1.0,66,0.00,,,0.00,,2013-01-21 01:33:00,
2013-01-20 19:43:00,58.0,47.0,30.07,South,185,0.0,1.0,66,0.00,,,0.00,,2013-01-21 01:43:00,
2013-01-20 19:53:00,57.0,47.0,30.07,South,185,0.0,1.0,68,0.00,,,0.00,,2013-01-21 01:53:00,
2013-01-20 20:03:00,56.0,46.0,30.07,South,185,1.0,2.0,70,0.00,,,0.00,,2013-01-21 02:03:00,
2013-01-20 20:12:00,56.0,46.0,30.07,South,185,1.0,2.0,70,0.00,,,0.00,,2013-01-21 02:12:00,
2013-01-20 20:23:00,55.0,46.0,30.08,South,185,0.0,1.0,71,0.00,,,0.00,,2013-01-21 02:23:00,
2013-01-20 20:33:00,55.0,46.0,30.08,South,185,1.0,2.0,72,0.00,,,0.00,,2013-01-21 02:33:00,
2013-01-20 20:43:00,55.0,46.0,30.08,South,185,1.0,2.0,72,0.00,,,0.00,,2013-01-21 02:43:00,
2013-01-20 20:53:00,54.0,46.0,30.08,South,185,0.0,1.0,73,0.00,,,0.00,,2013-01-21 02:53:00,
2013-01-20 21:03:00,54.0,45.0,30.08,South,185,0.0,1.0,72,0.00,,,0.00,,2013-01-21 03:03:00,
2013-01-20 21:12:00,54.0,45.0,30.08,South,185,0.0,1.0,72,0.00,,,0.00,,2013-01-21 03:12:00,
2013-01-20 21:23:00,53.0,45.0,30.09,South,185,0.0,1.0,74,0.00,,,0.00,,2013-01-21 03:23:00,
2013-01-20 21:33:00,53.0,45.0,30.09,South,185,0.0,1.0,74,0.00,,,0.00,,2013-01-21 03:33:00,
2013-01-20 21:43:00,53.0,45.0,30.09,South,185,0.0,1.0,74,0.00,,,0.00,,2013-01-21 03:43:00,
2013-01-20 21:53:00,52.0,44.0,30.10,South,185,0.0,1.0,75,0.00,,,0.00,,2013-01-21 03:53:00,
2013-01-20 22:03:00,52.0,44.0,30.10,South,185,0.0,0.0,75,0.00,,,0.00,,2013-01-21 04:03:00,
2013-01-20 22:12:00,52.0,44.0,30.10,South,185,0.0,0.0,75,0.00,,,0.00,,2013-01-21 04:12:00,
2013-01-20 22:23:00,51.0,44.0,30.10,South,185,0.0,1.0,76,0.00,,,0.00,,2013-01-21 04:23:00,
2013-01-20 22:32:00,50.0,43.0,30.10,South,185,1.0,2.0,77,0.00,,,0.00,,2013-01-21 04:32:00,
2013-01-20 22:42:00,50.0,43.0,30.10,South,185,1.0,2.0,77,0.00,,,0.00,,2013-01-21 04:42:00,
2013-01-20 22:53:00,49.0,43.0,30.11,South,185,0.0,0.0,79,0.00,,,0.00,,2013-01-21 04:53:00,
2013-01-20 23:03:00,49.0,43.0,30.11,South,185,0.0,0.0,79,0.00,,,0.00,,2013-01-21 05:03:00,
2013-01-20 23:12:00,49.0,43.0,30.11,South,185,0.0,0.0,79,0.00,,,0.00,,2013-01-21 05:12:00,
2013-01-20 23:22:00,48.0,42.0,30.11,South,185,0.0,1.0,80,0.00,,,0.00,,2013-01-21 05:22:00,
2013-01-20 23:33:00,48.0,43.0,30.11,South,185,0.0,1.0,82,0.00,,,0.00,,2013-01-21 05:33:00,
2013-01-20 23:42:00,48.0,43.0,30.11,South,185,0.0,1.0,82,0.00,,,0.00,,2013-01-21 05:42:00,
2013-01-20 23:53:00,48.0,43.0,30.11,South,185,0.0,1.0,83,0.00,,,0.00,,2013-01-21 05:53:00,